Wind_Speed
22 21 19 17 15 12 10 7 5 3 1 1 3 4 6 7 8 9 9 10 10 11 11 11 11 11 11 11 11 11 11 12 12 12 11 11 10 9 9 8 7 6 5 4
24 23 22 21 18 15 12 10 8 6 4 2 0 2 4 6 6 7 7 8 8 9 10 10 10 10 10 11 11 11 11 11 12 11 11 10 10 10 10 9 8 7 6 5
26 25 24 23 20 18 16 13 11 9 8 6 4 2 3 5 5 5 5 6 7 8 9 9 10 10 9 10 10 10 11 11 11 11 11 10 10 9 9 9 9 9 8 6
28 29 27 25 23 21 19 16 14 13 11 9 7 5 3 4 4 4 5 5 6 6 8 8 8 9 9 9 9 10 10 10 11 11 10 11 10 10 10 9 9 9 8 7
30 30 30 28 26 24 22 20 18 16 14 12 10 7 4 4 4 4 4 5 5 5 6 7 7 8 8 8 8 9 9 9 9 10 10 10 10 10 10 10 9 9 8 8
31 32 31 30 29 28 26 24 22 20 18 15 12 9 5 5 5 4 3 4 3 4 5 6 6 7 7 7 8 8 8 8 8 8 9 9 9 9 9 10 10 10 9 8
32 33 33 32 31 30 29 27 25 23 20 17 14 12 8 7 7 5 4 3 2 3 4 5 5 5 6 6 7 7 8 8 8 8 8 9 8 8 8 8 9 9 9 9
32 32 33 33 32 31 30 28 27 24 22 19 17 14 10 8 7 6 6 4 3 3 4 4 4 4 5 5 6 7 8 8 8 8 8 8 8 8 8 8 8 9 9 9
32 31 32 33 32 31 30 30 29 26 24 22 20 16 12 10 8 7 7 6 5 4 4 5 4 4 4 4 5 6 7 8 7 7 8 8 9 8 8 8 9 9 10 10
31 31 32 32 32 32 32 31 30 28 26 25 22 18 14 12 10 9 9 8 6 5 5 5 5 4 4 4 4 5 7 7 8 7 7 8 8 8 8 9 9 9 10 10
32 32 32 33 33 32 32 32 32 30 28 26 24 20 16 14 13 11 10 9 7 7 6 6 6 5 4 4 5 5 6 7 7 8 8 8 9 8 9 9 10 10 11 11
33 32 33 33 33 33 33 32 31 30 29 27 26 22 18 15 13 12 11 10 9 8 8 8 7 6 5 5 5 5 6 7 7 8 8 8 9 9 9 10 11 11 11 11
33 34 33 33 34 34 34 32 32 31 30 29 27 24 20 17 15 14 14 13 11 11 9 8 7 6 6 6 6 6 7 7 8 8 9 9 9 9 10 11 11 11 12 12
33 34 34 33 33 33 33 33 32 31 31 29 28 25 22 20 18 17 16 15 14 12 10 9 8 7 7 8 8 9 9 9 8 8 9 10 10 11 11 12 12 12 13 13
34 34 34 33 33 34 34 33 33 33 32 30 28 26 23 22 21 20 18 16 15 13 11 11 10 9 9 9 10 10 10 10 10 9 9 10 11 11 12 13 13 13 14 14
34 35 35 34 33 34 35 34 33 33 32 31 29 27 24 24 22 21 19 18 16 15 13 13 12 11 10 10 12 11 11 11 11 10 11 11 12 13 14 14 14 14 15 15
34 34 35 35 34 34 36 35 34 33 33 32 30 27 25 24 23 21 19 18 18 16 15 14 14 13 12 12 12 11 11 11 12 12 12 13 13 14 15 15 15 15 15 16
36 35 35 35 35 36 35 34 34 34 34 33 30 28 27 26 24 22 21 19 18 17 17 16 16 15 15 14 13 12 12 13 13 13 14 14 15 15 15 15 16 16 16 17
37 36 36 36 36 35 35 34 34 33 33 33 32 30 28 27 26 24 23 21 20 19 19 19 17 17 17 16 15 14 14 14 14 15 15 15 16 16 16 16 17 17 18 18
37 36 37 37 36 36 34 34 34 33 33 32 32 31 29 28 28 26 24 23 21 21 21 21 19 19 18 18 16 15 16 16 16 16 16 16 17 17 18 18 19 19 20 20
38 38 37 37 37 36 35 34 33 35 33 31 31 32 32 30 28 26 25 24 22 22 22 23 22 20 19 19 19 18 19 19 18 18 18 17 18 19 19 20 20 21 22 22
39 38 38 37 37 36 34 34 35 34 32 33 32 32 32 31 30 28 27 26 24 23 23 24 24 21 21 21 22 21 20 20 20 20 19 19 20 21 21 22 22 23 23 24
39 39 38 38 37 35 34 34 35 34 33 32 32 32 32 31 30 30 29 28 27 26 25 25 25 23 23 24 25 24 22 22 22 22 21 21 22 22 23 24 25 25 25 25
39 39 39 38 37 36 34 34 34 34 33 33 32 32 33 32 31 30 29 29 29 27 27 28 27 26 25 25 25 23 23 23 23 23 24 24 24 25 26 27 27 26 26 27
37 37 37 36 37 37 36 35 35 34 34 34 33 33 33 33 33 33 32 32 30 28 29 30 30 29 28 27 26 25 24 25 25 25 26 26 27 27 27 28 28 28 28 28
36 36 36 35 35 35 34 35 36 36 36 36 35 34 34 34 33 34 34 33 33 32 33 33 32 31 31 30 29 28 27 26 27 27 28 28 28 28 29 29 29 29 29 29
Wind_Direction
215 213 213 217 223 228 234 239 238 242 211 93 41 33 27 19 18 18 22 28 28 24 29 36 39 42 43 45 47 49 47 47 45 45 46 46 47 46 43 39 33 31 31 27
216 214 215 220 224 226 230 237 242 241 243 257 290 22 10 7 9 7 11 16 19 19 25 30 33 38 41 42 45 46 46 45 44 46 47 46 47 46 42 40 36 34 30 23
218 215 218 221 223 225 231 236 242 249 252 263 253 279 327 347 351 355 355 360 10 17 24 29 34 36 37 38 41 41 41 42 42 44 45 44 41 36 36 38 37 32 32 33
218 217 218 221 223 227 231 235 242 251 256 263 267 278 301 327 344 349 348 351 357 11 22 25 27 29 32 34 34 33 35 36 37 39 40 42 38 35 35 36 35 34 32 31
220 219 219 221 223 226 230 234 240 247 253 260 271 279 288 306 327 332 342 344 352 10 21 20 24 27 29 28 29 29 29 31 31 31 33 36 34 31 31 33 33 32 30 30
221 221 220 220 222 225 230 233 238 244 251 258 269 267 274 296 305 306 324 336 347 360 12 11 14 20 24 24 26 27 26 26 26 26 27 28 26 26 28 29 30 30 27 24
222 221 222 222 222 225 228 231 236 242 248 255 259 257 265 275 273 280 295 317 327 333 341 350 2 7 14 17 19 22 23 24 24 23 21 18 16 19 23 23 23 22 20 15
223 222 222 223 224 226 229 233 237 243 248 249 251 256 259 261 259 270 278 281 299 316 321 330 341 350 1 11 16 19 22 19 19 20 18 13 11 12 14 14 12 10 7 4
222 222 222 223 223 226 228 232 236 240 242 245 248 253 253 249 251 262 272 282 298 313 310 311 315 326 343 0 11 18 18 13 10 12 13 11 10 9 8 5 2 358 357 356
221 220 221 223 224 225 228 231 234 236 240 243 246 250 253 247 250 258 268 278 292 303 306 308 303 301 322 347 358 2 5 1 360 3 7 8 7 6 3 359 354 351 349 346
221 220 220 222 224 225 227 230 233 237 240 244 245 247 252 251 250 256 267 272 283 291 292 293 297 288 304 327 341 349 346 347 348 352 357 359 358 357 358 354 349 348 346 342
222 221 221 223 224 225 228 230 233 237 241 244 248 247 249 250 251 256 265 271 273 279 282 284 282 279 295 307 321 331 333 335 339 341 342 346 347 348 348 346 344 343 341 340
222 222 221 222 224 226 229 231 234 237 240 245 248 247 245 247 249 255 261 267 267 274 276 275 273 278 289 299 303 309 312 318 325 329 333 335 336 337 341 342 340 339 337 337
224 224 224 225 227 229 230 232 234 236 239 243 248 248 245 246 248 252 257 263 265 267 269 271 271 280 287 294 294 295 299 306 310 315 322 327 328 330 332 335 337 337 336 336
226 226 225 226 228 229 230 232 235 238 242 245 247 247 247 249 248 250 255 261 260 260 263 267 272 279 286 292 292 289 291 298 302 305 310 317 320 324 326 327 328 330 330 330
228 228 228 227 228 230 230 231 234 238 241 245 246 247 248 250 250 250 253 257 257 258 261 266 270 275 280 287 290 282 288 291 296 299 304 307 312 317 320 321 321 322 324 325
228 230 230 229 229 231 231 231 235 238 241 244 245 246 246 249 252 252 252 254 254 258 262 266 268 269 272 283 287 287 286 289 294 296 299 304 305 309 313 315 316 317 318 319
228 230 231 231 231 233 233 233 236 238 240 242 244 244 245 248 250 251 251 251 252 258 263 264 263 264 266 273 275 278 284 287 288 290 293 298 302 304 306 308 310 312 312 313
229 230 232 233 234 235 234 235 237 239 241 242 243 245 246 247 248 249 251 252 252 254 257 258 259 263 265 266 267 269 279 283 285 288 290 293 297 300 303 305 305 306 307 308
229 231 233 234 236 237 236 237 238 240 242 241 242 243 243 246 249 249 251 253 255 253 254 254 256 262 265 267 269 271 275 281 282 285 288 291 294 297 299 301 303 304 305 306
229 231 233 235 238 238 238 238 239 240 241 240 242 243 243 245 249 248 249 253 255 254 253 254 257 260 267 271 271 270 273 278 279 281 286 291 294 296 297 300 303 303 303 303
229 232 234 237 238 239 239 240 240 241 239 240 241 242 244 245 247 247 249 252 253 253 251 252 254 259 265 268 270 272 277 279 279 282 285 290 293 295 296 298 300 301 301 301
232 233 235 237 240 241 241 241 240 240 239 239 240 241 241 242 244 247 249 251 251 250 250 253 256 259 264 267 270 270 273 276 279 283 286 289 291 292 294 295 297 297 298 298
233 235 237 238 239 240 241 242 241 241 241 240 241 242 242 242 243 245 247 250 249 249 251 254 257 260 263 267 269 266 269 275 279 281 283 286 289 290 291 293 294 294 295 296
233 235 236 239 239 240 239 241 242 241 241 241 242 242 243 243 243 245 247 249 249 250 252 254 257 259 261 265 268 268 270 275 279 281 281 283 286 288 290 291 292 292 293 294
231 233 236 237 238 239 239 240 240 241 241 241 242 242 243 245 244 245 247 249 251 253 253 255 258 260 260 263 267 268 269 274 278 280 282 283 283 285 288 290 290 291 292 293
Height
5908 5912 5913 5915 5917 5919 5920 5921 5922 5923 5923 5924 5924 5923 5923 5922 5922 5921 5919 5917 5916 5914 5912 5910 5909 5907 5906 5905 5904 5903 5901 5900 5898 5897 5896 5895 5894 5893 5891 5890 5889 5888 5888 5887
5906 5909 5911 5913 5915 5917 5919 5920 5921 5922 5923 5924 5924 5924 5924 5923 5922 5921 5920 5918 5917 5915 5913 5912 5910 5909 5908 5906 5905 5904 5903 5901 5900 5898 5897 5896 5895 5894 5893 5891 5890 5889 5888 5888
5902 5906 5908 5911 5913 5915 5917 5919 5920 5921 5922 5923 5923 5924 5924 5923 5922 5922 5921 5919 5917 5916 5914 5913 5911 5910 5909 5908 5907 5905 5904 5903 5901 5900 5899 5898 5896 5895 5894 5893 5892 5890 5889 5888
5898 5901 5905 5908 5911 5913 5915 5917 5918 5919 5921 5922 5923 5923 5924 5923 5922 5921 5921 5919 5918 5916 5915 5913 5912 5911 5909 5909 5908 5906 5905 5904 5902 5901 5900 5899 5898 5896 5895 5894 5893 5891 5890 5889
5893 5897 5901 5905 5908 5911 5912 5914 5916 5917 5919 5920 5921 5922 5923 5922 5922 5921 5920 5919 5918 5917 5915 5914 5913 5911 5910 5910 5908 5907 5906 5905 5904 5902 5901 5900 5899 5897 5896 5895 5893 5892 5891 5890
5889 5893 5897 5901 5904 5907 5909 5912 5913 5915 5916 5918 5919 5920 5922 5922 5921 5921 5920 5919 5918 5917 5916 5914 5913 5912 5911 5910 5909 5908 5907 5906 5904 5903 5902 5901 5900 5898 5897 5896 5894 5893 5892 5891
5884 5888 5892 5896 5900 5903 5906 5909 5910 5912 5913 5916 5917 5918 5921 5920 5920 5919 5919 5918 5917 5917 5916 5915 5913 5913 5912 5911 5910 5909 5907 5906 5905 5904 5903 5901 5900 5899 5898 5897 5895 5894 5893 5891
5879 5883 5888 5891 5896 5899 5902 5905 5908 5910 5911 5913 5915 5916 5919 5919 5918 5918 5918 5918 5917 5916 5916 5915 5914 5913 5912 5911 5910 5909 5908 5907 5905 5904 5903 5902 5901 5900 5898 5897 5896 5895 5893 5892
5874 5879 5883 5887 5891 5895 5898 5900 5904 5906 5907 5910 5911 5914 5917 5917 5917 5917 5917 5917 5916 5916 5915 5914 5913 5913 5912 5911 5910 5909 5908 5907 5906 5904 5903 5902 5901 5900 5899 5897 5896 5895 5893 5892
5868 5874 5878 5881 5885 5889 5893 5896 5899 5901 5903 5905 5908 5911 5914 5915 5915 5915 5915 5915 5915 5915 5914 5913 5913 5912 5912 5911 5910 5909 5908 5907 5906 5904 5903 5902 5901 5899 5898 5897 5895 5894 5893 5891
5863 5868 5872 5876 5879 5883 5888 5891 5893 5896 5899 5902 5904 5909 5911 5912 5913 5913 5914 5914 5914 5913 5913 5912 5912 5911 5911 5910 5910 5909 5908 5907 5906 5904 5903 5902 5900 5899 5898 5896 5895 5893 5892 5890
5857 5861 5866 5871 5875 5878 5882 5885 5889 5892 5894 5897 5900 5907 5907 5909 5910 5911 5911 5911 5912 5912 5911 5911 5910 5910 5910 5909 5909 5908 5907 5906 5905 5904 5902 5901 5900 5898 5897 5896 5894 5892 5890 5889
5850 5855 5860 5865 5870 5873 5876 5880 5883 5887 5890 5892 5895 5902 5903 5905 5906 5907 5908 5909 5909 5910 5909 5909 5908 5908 5908 5908 5907 5907 5906 5905 5904 5903 5901 5900 5899 5897 5896 5895 5893 5891 5889 5887
5845 5849 5855 5860 5864 5867 5870 5874 5877 5881 5884 5887 5890 5895 5898 5900 5902 5904 5905 5906 5906 5907 5907 5906 5906 5906 5906 5906 5905 5905 5904 5903 5902 5901 5900 5899 5898 5897 5895 5893 5891 5889 5888 5885
5838 5843 5848 5853 5857 5861 5865 5868 5872 5875 5878 5882 5886 5889 5893 5895 5898 5900 5901 5902 5903 5903 5904 5904 5904 5904 5904 5903 5903 5902 5902 5901 5900 5899 5898 5897 5896 5895 5893 5892 5890 5888 5886 5884
5831 5836 5841 5846 5850 5854 5858 5862 5866 5869 5873 5876 5880 5884 5887 5890 5892 5894 5896 5898 5899 5900 5900 5900 5900 5900 5900 5900 5899 5899 5899 5899 5898 5897 5896 5895 5894 5893 5891 5890 5888 5886 5884 5882
5825 5830 5834 5839 5843 5846 5851 5856 5860 5863 5867 5871 5874 5879 5881 5884 5887 5889 5892 5893 5894 5895 5896 5896 5896 5896 5896 5896 5896 5896 5895 5895 5894 5894 5893 5892 5891 5890 5888 5887 5885 5883 5881 5879
5818 5823 5827 5831 5836 5839 5847 5849 5853 5856 5861 5864 5868 5872 5875 5878 5881 5884 5886 5888 5889 5890 5890 5891 5891 5891 5891 5892 5892 5892 5892 5892 5891 5890 5890 5889 5888 5886 5885 5883 5882 5880 5878 5876
5811 5816 5820 5824 5827 5832 5838 5842 5846 5849 5854 5858 5861 5865 5868 5871 5874 5877 5880 5882 5883 5884 5885 5885 5885 5886 5887 5887 5888 5888 5888 5888 5888 5887 5886 5886 5884 5883 5881 5880 5878 5876 5874 5873
5803 5808 5813 5817 5820 5824 5832 5835 5838 5843 5846 5851 5855 5858 5861 5864 5868 5872 5874 5876 5877 5878 5879 5879 5879 5882 5882 5882 5883 5883 5884 5884 5884 5883 5882 5881 5880 5879 5877 5876 5874 5872 5870 5868
5796 5800 5804 5809 5812 5817 5823 5827 5832 5836 5841 5844 5847 5851 5854 5857 5861 5865 5867 5869 5871 5872 5873 5874 5875 5876 5877 5877 5878 5878 5878 5878 5878 5878 5878 5877 5875 5874 5873 5872 5870 5868 5866 5864
5788 5793 5797 5801 5805 5812 5815 5819 5824 5828 5832 5836 5840 5843 5847 5850 5853 5857 5860 5862 5864 5865 5867 5868 5869 5870 5871 5871 5872 5873 5873 5873 5873 5873 5872 5871 5870 5869 5868 5867 5865 5863 5861 5858
5780 5785 5789 5794 5800 5804 5807 5811 5815 5819 5824 5828 5832 5836 5839 5843 5846 5849 5852 5855 5857 5858 5859 5860 5862 5863 5865 5865 5865 5866 5866 5866 5866 5866 5866 5865 5864 5863 5862 5861 5859 5857 5855 5852
5772 5777 5781 5786 5791 5795 5799 5803 5807 5811 5816 5820 5824 5828 5831 5835 5838 5841 5844 5847 5848 5851 5852 5854 5855 5856 5857 5857 5857 5858 5859 5860 5859 5859 5859 5858 5858 5857 5855 5854 5852 5850 5848 5846
5764 5768 5772 5777 5782 5787 5791 5795 5799 5803 5808 5812 5816 5819 5823 5826 5829 5832 5835 5838 5840 5842 5845 5846 5847 5848 5849 5850 5851 5852 5852 5853 5853 5852 5852 5851 5850 5849 5848 5847 5845 5843 5841 5839
5757 5761 5766 5770 5774 5779 5783 5787 5791 5795 5799 5803 5807 5811 5814 5817 5820 5823 5826 5829 5831 5834 5836 5837 5838 5840 5841 5842 5843 5843 5844 5845 5845 5845 5844 5843 5843 5842 5840 5839 5838 5836 5834 5832